Location: McMath-Hulbert Observatory
(42.6964°N, 83.3187°W)
Time: 10:52:57
(UTC-04:00)

Daily predictions for brighter satellites

Satellite Brightness Start Highest point End
(mag) Time Altitude Azimuth Time Altitude Azimuth Time Altitude Azimuth
FENGYUN 3A 4.5 20:54:15 10° S 20:59:29 54° W 21:04:44 10° NNW
Cosmos 220 Rocket 4.1 20:58:51 10° NNW 21:03:19 87° WSW 21:07:46 10° SSE
Cosmos 2242 Rocket 3.7 21:00:56 10° S 21:05:21 58° E 21:09:46 10° NNE
Cosmos 2195 Rocket 4.5 21:01:42 10° N 21:07:51 77° E 21:13:59 10° SSE
Cosmos 1939 Rocket 3.7 21:05:23 10° SE 21:09:01 33° ENE 21:12:37 10° N
Cosmos 1627 Rocket 4.5 21:03:39 10° N 21:09:53 78° E 21:16:01 10° S
Cosmos 1992 Rocket 4.1 21:05:06 10° S 21:10:10 54° ESE 21:15:17 10° NNE
Cosmos 2279 Rocket 4.2 21:05:26 10° SSE 21:11:26 53° E 21:17:28 10° NNE
Intercosmos 25 Rocket 3.2 21:09:56 10° S 21:13:07 57° E 21:17:19 10° NNE
Cosmos 2263 Rocket 2.3 21:09:30 10° NNW 21:15:03 64° ENE 21:20:34 10° SE
Atlas Centaur 2 3.7 21:11:19 10° SW 21:16:44 27° SSE 21:22:34 11° ESE
Lacrosse 4 Rocket 2.0 21:15:58 10° NW 21:20:14 59° WSW 21:24:34 10° SSE
Helios 1B rocket 2.5 21:16:55 10° NNE 21:20:58 56° E 21:24:59 10° S
Cosmos 2322 Rocket 2.3 21:20:11 10° SSW 21:25:48 80° WNW 21:31:28 10° NNE
USA 267 3.8 21:20:09 10° NE 21:26:38 66° NW 21:33:06 10° WSW
Resurs 01 Rocket 2.9 21:22:39 10° S 21:26:52 43° W 21:31:08 10° NNW
SAR-Lupe-4 3.5 21:28:29 10° SSE 21:32:04 89° WSW 21:35:41 10° NNW
CZ-4C R/B 4.5 21:27:20 10° NNW 21:32:21 21° NNE 21:37:47 10° ENE
COSMOS 2428 3.9 21:29:08 11° SE 21:33:03 21° E 21:37:11 10° NE
Cosmos 1825 2.7 21:30:02 10° NNW 21:33:47 59° W 21:37:32 10° S
Cosmos 2360 Rocket 2.4 21:28:49 10° S 21:34:12 48° ESE 21:39:38 10° NE
OAO 3 Rocket 4.3 21:33:17 10° WSW 21:37:34 31° S 21:40:30 17° SE
Cosmos 2180 Rocket 4.5 21:33:54 10° S 21:40:15 74° E 21:46:34 10° NNE
Cosmos 1908 Rocket 3.9 21:38:01 10° N 21:42:12 46° ENE 21:45:05 19° SE
Sich 1 Rocket 3.9 21:39:27 10° N 21:43:49 49° ENE 21:46:54 18° SSE
Cosmos 968 Rocket 3.6 21:39:33 10° NNW 21:44:43 59° ENE 21:48:26 19° SE
ATLAS 5 CENTAUR R/B 2.4 21:42:42 10° NW 21:48:44 84° NE 21:53:36 19° SE
Cosmos 1408 4.2 21:45:37 10° NNW 21:49:00 35° W 21:52:20 10° SSW
Cosmos 2322 3.8 21:43:53 10° S 21:49:25 55° ESE 21:54:59 10° NNE
SAR-Lupe-1 4.5 21:45:55 10° S 21:49:28 63° W 21:53:01 10° NNW
Meteor 1-29 3.4 21:52:01 10° N 21:55:29 64° WNW 21:58:53 10° SSW
SL-16 R/B 3.3 21:50:24 10° SW 21:55:52 48° WNW 22:01:22 10° NNE
Cosmos 1782 Rocket 4.1 21:52:33 10° N 21:56:40 39° ENE 21:58:28 26° SE
Cosmos 1867 3.5 21:52:20 10° NNW 21:57:50 83° NE 22:01:17 23° SE
ARGOS 3.9 21:56:21 22° ESE 21:59:05 36° ENE 22:03:58 10° N
Cosmos 1733 Rocket 4.1 21:55:37 10° NNW 21:59:54 47° W 22:04:10 10° SSW
Envisat 3.5 21:55:09 10° S 22:00:09 58° W 22:05:11 10° NNW
USA 234 3.2 21:56:41 21° SE 22:01:24 90° SW 22:07:59 10° NW
H-2A R/B 3.3 21:59:46 19° E 22:01:31 23° ENE 22:05:19 10° NNE
Terra 3.8 22:01:51 12° ENE 22:03:07 13° ENE 22:05:19 10° NNE
Cosmos 1933 4.4 22:04:47 10° SSW 22:08:40 46° WNW 22:12:33 10° N
Okean 2 Rocket 3.7 22:04:29 10° N 22:08:45 38° ENE 22:10:03 31° ESE
Abrixas rocket 4.0 22:07:14 10° WNW 22:10:09 28° N 22:12:17 15° NE
Okean 1-7 3.4 22:08:38 31° SE 22:10:13 44° E 22:14:26 10° NNE
Cosmos 2237 Rocket 4.1 22:14:04 13° ENE 22:14:04 13° ENE 22:15:15 10° ENE
Cosmos 2333 Rocket 3.6 22:13:24 20° E 22:13:24 20° E 22:16:53 10° NE
Cosmos 2278 Rocket 3.8 22:11:04 10° N 22:15:21 21° NE 22:17:43 17° E
Cosmos 1844 Rocket 3.2 22:11:39 10° NNW 22:17:00 45° ENE 22:19:16 30° ESE
YAOGAN 6 3.3 22:21:30 25° SSW 22:23:19 51° W 22:26:51 10° NNW
ERS-1 Rocket 3.1 22:22:03 23° S 22:25:13 71° WSW 22:30:15 10° NNW
MetOp-A 4.1 22:25:28 30° SSE 22:28:13 87° ENE 22:33:37 10° NNW
SeaSat 1 2.8 22:27:56 36° ESE 22:29:33 52° ENE 22:34:21 10° NNW
Milstar 3 4.2 22:25:11 10° WSW 22:29:59 18° SSW 22:31:42 17° S
Cosmos 1703 Rocket 3.7 22:27:00 17° SSW 22:30:20 72° W 22:34:46 10° N
Cosmos 1782 3.0 22:36:14 51° E 22:36:14 51° E 22:39:58 10° NNE
Cosmos 2219 Rocket 2.5 22:37:34 40° ESE 22:37:58 41° ESE 22:43:12 10° NE
Cosmos 2266 Rocket 4.3 22:36:37 10° NNW 22:42:50 65° W 22:47:08 21° S
Cosmos 2151 Rocket 4.1 22:38:40 10° N 22:42:54 42° ENE 22:42:57 42° E
NOSS 3-1 (C) 3.5 22:42:31 40° SSE 22:43:53 48° ESE 22:49:58 10° NE
YAOGAN 11 4.4 22:47:26 42° SSW 22:48:40 61° WSW 22:52:58 10° NNW
SPOT 1/Viking Rocket 3.5 22:47:41 50° SE 22:49:00 74° ENE 22:54:13 10° N
USA 229 DEB 3.9 22:42:36 10° SW 22:49:25 73° NW 22:56:24 10° NNE
USA 229 3.9 22:42:43 10° SW 22:49:32 73° NW 22:56:30 10° NNE
Cosmos 2221 Rocket 4.1 22:48:15 27° SSW 22:50:28 58° W 22:54:52 10° N
SPOT 5 2.9 22:50:39 47° S 22:51:58 73° WSW 22:56:36 10° NNW
Cosmos 1346 Rocket 4.5 22:53:59 23° NE 22:53:59 23° NE 22:55:53 10° NNE
Meteor 1-27 Rocket 4.2 22:53:16 41° E 22:53:24 41° E 22:58:37 10° NNE
Cosmos 1777 Rocket 4.2 22:51:21 10° NNW 22:56:35 66° WSW 22:58:03 45° SSW
Cosmos 2263 Rocket 4.4 22:54:42 10° WNW 22:58:23 18° W 23:02:04 10° SW
NOSS 3-1 (A) 3.7 23:00:30 45° ESE 23:00:30 45° ESE 23:06:04 10° NE
NOSS 0 Rocket 4.2 23:01:38 46° ESE 23:01:38 46° ESE 23:07:24 10° NE
ASTEX 1 3.7 23:02:21 51° E 23:02:25 51° E 23:07:14 10° N
IGS 5A 4.4 23:03:41 36° NE 23:03:41 36° NE 23:06:54 10° N
Atlas Centaur 2 3.6 22:59:07 10° WSW 23:05:13 32° S 23:05:13 32° S
Cosmos 1633 3.6 23:02:11 10° N 23:04:45 40° NNE 23:04:45 40° NNE
SL-08 RB Rocket 3.9 23:07:29 57° SW 23:08:04 64° WSW 23:12:36 10° NNW
Cosmos 1244 Rocket 4.4 23:02:21 10° N 23:08:38 86° W 23:10:33 48° S
H-2A R/B 2.3 23:14:15 59° NNE 23:14:15 59° NNE 23:18:04 10° N
Meteor 1-10 Rocket 4.3 23:12:10 41° SSW 23:14:21 79° W 23:20:14 10° N
MOS 1-B Rocket 4.3 23:12:55 38° SSW 23:14:58 56° WSW 23:20:30 10° NNW
COSMOS 2428 3.2 23:11:14 10° SW 23:16:49 58° WNW 23:22:28 10° NNE
Meteor 1-11 Rocket 3.6 23:12:38 10° N 23:18:09 68° ENE 23:18:30 67° ESE
Cosmos 1553 Rocket 3.9 23:17:12 60° SSE 23:18:14 71° E 23:24:26 10° NNE
Cosmos 2360 Rocket 4.2 23:13:38 10° WSW 23:18:25 28° NW 23:23:16 10° N
SL-08 R/B 4.3 23:13:06 10° N 23:19:16 75° E 23:20:08 64° SE
CZ-4C R/B 3.0 23:15:12 10° NNW 23:22:15 64° NE 23:24:27 47° ESE
Landsat 7 3.8 23:25:08 76° W 23:25:08 76° W 23:29:52 10° NNW
Cosmos 1980 3.7 23:28:48 63° ENE 23:28:48 63° ENE 23:33:52 10° NNE
Cosmos 1844 3.8 23:23:44 10° NNW 23:29:21 64° WSW 23:29:52 61° SW
ATLAS 3B R/B 4.4 23:24:43 10° NNW 23:30:04 23° NNE 23:33:55 14° ENE
Cosmos 1606 4.0 23:31:23 37° WNW 23:31:23 37° WNW 23:34:27 10° N
ATLAS 5 CENTAUR R/B 4.3 23:28:47 10° WNW 23:32:57 19° WSW 23:35:10 16° SW
SL-16 R/B 3.8 23:36:36 21° ENE 23:36:36 21° ENE 23:38:58 10° NE
SL-19 R/B 4.2 23:28:21 10° NNE 23:34:27 81° ESE 23:34:49 76° SSE
Cosmos 1300 Rocket 4.2 23:33:11 10° N 23:36:30 51° N 23:36:30 51° N
Cosmos 1536 4.2 23:34:32 10° N 23:36:59 34° NNE 23:36:59 34° NNE
Geosat 4.3 23:33:38 10° NNE 23:37:44 59° NE 23:37:44 59° NE
Terra 2.0 23:40:44 68° NW 23:40:44 68° NW 23:45:00 10° NNW
CZ-4B R/B 4.2 23:35:37 10° NNE 23:38:52 41° NE 23:38:52 41° NE
H-2A R/B 2.7 23:40:23 43° WSW 23:40:39 44° W 23:45:24 10° NNW
Cosmos 2298 Rocket 4.3 23:43:24 10° NNW 23:48:12 62° NNE 23:48:12 62° NNE
S3M 4.0 23:47:55 61° SW 23:48:53 72° W 23:55:06 10° N
DMSP B5D2-2 4.4 23:44:42 10° N 23:49:55 61° WNW 23:50:21 59° W
Cosmos 1386 Rocket 4.3 23:45:18 10° N 23:51:44 85° E 23:52:02 81° SE
Spot 4 4.4 23:54:40 55° N 23:54:40 55° N 23:58:28 10° N
